OPS 4682 DEB, 38383

Orbit data source: Space-Track

OPS 4682 DEB, 38383 is space debris in LEO originally from a launch on Sat, 03 Apr 1965 UTC launched from the Air Force Western Test Range (AFWTR). Debris objects in space refer to the collection of defunct objects orbiting the Earth. Examples of debris include non-operational satellites, rocket bodies, and fragments generated from explosions, collisions, or faulty payload assembly.

Loading next visibility...
Identifier
38383, 1965-027CL
Orbit
LEO
Country
Flag of USUS
Related business
Manufacturer
Unknown
Mission
Spacecraft
Bus & Motor
Unknown
Mass
Unknown
Launch date (UTC)
1965-04-03 (61 years ago)
Launch vehicle
Unknown
Launch site
Air Force Western Test Range (AFWTR)
Object type
Payload
Rocket body
Debris
Shape & HBR
Unknown shape, 0.1 m
Radar Cross Section
Medium (>0.1 m² and <1 m²)

Expand to show TLE details & history
Last TLE update: 14 hours ago

TLE from 14 hours ago
0 OPS 4682 DEB
1 38383U 65027CL  26174.81363544 -.00000151  00000-0 -54907-3 0  9996
2 38383  90.2479  12.1160 0030225  95.6153 264.8416 12.97014128584463
Epoch: 2026-06-23T19:31Z
TLE epoch observation values (Epoch: 2026-06-23T19:31:38.102Z)
Latitude
0.00004°
Longitude
167.22743°
Altitude
1,278.836 km
Speed
7.215 km/s
True Right ascension
00h 48m 27s
True Declination
0° 00' 00"
Sunlit
Object was in daylight at epoch
Visualization orbit readout
Latitude
Unknown
Longitude
Unknown
Altitude
Unknown
Speed
Unknown
Apparent Right ascension
Unknown
Apparent Declination
Unknown
Sunlit
N/A
Visualization observer readout
Local Sidereal Time
21:10:05
Azimuth
Unknown
Elevation
Unknown
Doppler factor
Unknown
Orbital elements
Apogee altitude
1,294.059 km
Perigee altitude
1,247.82 km
Semi-major axis
7,649.076 km
Eccentricity
0.00302
Inclination
90.2479°
RAAN
12.116°
Arg. of periapsis
95.6153°
True anomaly
264.49677°
Mean anomaly
264.8416°
Eccentric anomaly
264.66917°
Mean motion
3.24436 °/min
Orbital period
110.96 mins
BSTAR
-0.00054907
Loading maneuver chart data...
Computing Atmospheric mass density...
Loading historical data...
Loading historical data...
Loading historical data...
Loading historical data...
Loading historical data...
Loading historical data...
Loading historical data...

Documentation

Showing up to 5 results
|